Lapse_Rate
2.6 2.5 0.5 1.3 6.3 6.5 6.5 6.5 6.5 6.5 6.5 5.4 5.2 5.2 6.4 6.2 6.5 6.5 5.6 5.2 5.3 5.0 4.8 5.1 5.7 6.0 5.9 6.0 6.1 6.1 6.0 6.1 6.2 6.5 6.5 6.4 6.1 6.1 6.2 6.5 6.9 6.3 6.3 6.8 7.2 6.2 6.1 5.8 5.5
2.2 3.5 0.7 1.0 6.5 6.5 6.5 6.5 6.5 6.5 5.9 5.0 5.0 5.6 6.2 6.5 6.7 6.7 6.5 6.7 5.9 5.3 4.8 4.9 5.9 5.9 5.8 6.0 6.1 6.1 6.2 6.2 6.2 6.3 6.3 6.3 6.5 6.6 6.5 6.7 6.8 6.6 6.2 6.0 5.7 5.4 5.2 5.1 5.4
2.7 3.2 2.7 6.5 6.5 6.5 6.5 6.5 6.5 6.2 5.1 5.6 5.9 5.0 6.0 6.3 6.3 5.3 5.7 5.5 6.9 5.5 5.5 6.0 5.9 6.1 6.1 6.1 6.2 6.2 6.3 6.2 6.2 6.1 6.1 6.1 6.3 6.1 6.2 6.6 6.5 6.4 5.8 5.7 5.6 5.4 5.1 5.1 5.1
2.4 1.6 2.2 6.5 6.5 6.5 6.5 6.5 6.3 6.3 5.3 5.9 4.8 6.4 5.6 6.0 5.2 3.9 3.7 5.4 6.3 5.8 5.9 5.7 5.7 5.9 6.1 6.0 6.0 6.1 6.1 6.0 6.0 5.9 6.0 6.1 6.1 6.2 6.2 6.2 6.2 6.2 6.1 6.0 5.5 5.3 5.3 4.9 5.0
0.3 1.3 6.5 6.5 6.5 6.5 6.5 6.0 6.0 6.5 6.1 6.0 5.6 6.4 5.8 5.5 4.3 2.9 3.6 3.8 4.1 4.2 5.9 5.7 5.6 5.6 5.6 5.7 5.8 5.8 5.9 5.9 5.9 5.9 6.0 6.0 6.1 6.1 5.8 5.8 6.1 6.2 6.1 6.1 6.1 5.9 5.5 5.3 5.1
2.8 2.5 6.5 6.5 6.5 6.5 6.4 4.8 5.6 5.8 4.9 5.7 5.5 5.8 5.5 5.0 4.7 3.3 2.4 2.4 2.6 3.8 3.7 5.0 5.6 5.1 5.2 5.3 5.3 5.5 5.9 5.9 5.8 5.9 6.0 6.0 5.9 5.7 5.7 5.7 5.9 6.1 6.2 6.1 6.1 6.0 5.8 5.4 5.5
5.2 6.5 6.5 6.5 6.5 6.5 6.5 4.5 6.0 6.2 5.9 6.0 5.5 6.5 5.5 5.1 4.2 3.3 1.9 2.7 1.7 2.4 3.4 2.7 3.6 4.4 4.7 5.1 5.4 5.7 5.8 5.8 5.7 5.7 5.8 5.8 5.7 5.7 5.6 5.4 5.7 5.9 5.9 5.8 5.9 6.0 6.0 5.9 5.7
1.6 6.1 6.5 6.5 6.5 6.5 6.0 5.7 5.8 5.8 6.2 5.2 5.3 6.2 5.7 4.1 3.6 3.1 2.3 2.3 2.0 2.2 2.6 3.2 3.4 3.6 3.7 4.1 4.5 4.9 5.6 5.4 4.8 4.8 5.0 5.1 5.4 5.4 5.1 5.1 5.0 5.7 6.1 5.8 5.8 5.9 5.9 5.9 5.9
3.5 6.5 6.5 6.5 6.5 6.5 5.2 6.4 5.3 5.7 5.8 5.0 4.0 4.2 3.3 2.3 3.1 3.2 2.9 2.5 3.4 2.0 1.8 3.9 3.8 3.8 4.1 4.2 4.2 4.0 3.6 4.2 4.7 4.7 4.9 5.0 4.7 4.7 4.8 4.4 4.5 4.8 5.3 6.5 5.8 5.9 6.2 6.1 5.7
4.9 6.5 6.5 6.5 6.4 6.5 6.1 5.9 5.3 6.1 5.6 5.6 3.7 3.0 2.9 2.9 3.4 3.0 3.0 2.8 3.9 4.4 3.0 3.0 3.6 4.5 4.6 5.2 4.1 4.0 3.9 3.2 3.7 4.5 4.8 5.3 5.4 4.6 4.6 4.3 4.8 4.7 4.5 4.7 5.7 5.9 5.9 5.8 5.1
6.0 6.5 6.5 6.3 5.7 5.8 6.2 5.8 4.8 6.3 6.5 4.8 3.6 2.8 3.1 3.4 3.3 3.2 3.4 3.1 3.2 3.4 2.8 3.1 2.9 3.4 3.4 3.1 3.3 3.5 3.3 3.5 2.6 4.4 4.9 4.8 4.3 4.4 4.0 4.1 3.4 3.5 3.6 4.3 4.9 5.4 5.1 4.9 4.7
6.5 6.3 6.1 6.0 5.7 5.9 6.3 5.5 5.4 5.5 4.8 5.5 2.9 2.1 2.4 3.1 2.8 3.0 2.8 2.7 2.8 2.9 3.3 2.2 2.4 2.3 2.0 2.5 2.4 2.8 2.7 3.5 3.6 4.1 4.2 4.3 3.2 3.1 3.2 3.2 3.4 3.6 3.7 4.2 4.0 4.0 4.0 4.3 4.7
6.5 6.4 5.5 5.4 5.4 5.5 5.7 5.7 6.1 4.7 3.4 5.0 2.2 2.5 2.3 2.6 3.1 3.3 2.9 2.8 2.5 2.9 2.6 1.6 1.7 1.5 2.3 2.3 2.5 2.9 2.4 2.6 3.3 3.8 3.9 3.9 2.7 2.0 3.2 3.2 3.5 3.4 3.9 3.5 3.1 3.2 3.1 3.2 3.8
6.1 6.0 5.2 4.6 5.5 5.6 6.3 6.1 6.1 4.5 3.6 3.7 2.7 2.4 2.7 3.2 3.2 2.8 2.7 2.2 2.9 2.4 2.3 1.8 2.1 2.4 3.0 2.0 2.3 2.0 2.7 2.7 2.6 2.5 3.0 3.0 2.3 1.9 1.8 1.9 2.3 2.9 3.6 3.9 3.4 2.8 2.2 2.0 2.1
6.0 6.5 6.4 6.2 5.7 6.4 5.8 6.5 6.5 3.6 3.9 4.0 3.0 2.5 3.4 3.5 3.0 2.7 2.2 2.1 1.9 2.0 2.2 2.5 2.7 3.0 2.4 2.1 2.3 2.2 2.8 2.4 1.7 2.0 2.5 2.6 2.4 1.8 1.4 1.2 1.3 1.9 2.8 3.1 3.2 3.1 2.9 2.1 2.4
6.5 6.5 6.5 6.5 6.2 6.2 6.4 6.5 6.5 3.9 4.1 3.9 3.5 3.5 3.6 3.4 3.0 2.4 1.8 1.9 1.6 1.8 2.9 3.9 4.1 2.5 2.1 1.8 2.0 2.0 1.9 1.7 1.4 1.9 2.3 2.3 2.3 2.1 1.5 0.7 0.7 1.9 2.4 2.4 2.1 1.6 2.1 1.9 1.7
6.5 6.5 6.5 6.5 6.2 6.5 6.5 6.5 6.2 4.0 3.8 3.7 2.9 3.1 3.3 3.2 3.4 2.5 1.7 1.6 1.3 2.0 2.6 2.7 2.8 2.3 1.7 1.2 1.3 1.2 1.3 1.3 1.7 2.1 2.1 2.3 2.4 2.2 1.4 1.0 1.4 2.2 1.9 1.4 1.8 2.0 2.3 2.6 2.3
6.5 6.5 6.5 6.5 6.5 6.5 6.5 6.5 6.6 3.8 4.6 3.4 2.0 1.9 2.4 3.0 3.1 2.3 1.8 1.6 1.5 1.6 2.2 2.3 2.2 1.8 1.2 0.4 0.4 0.4 0.4 0.6 1.1 1.3 1.7 2.0 2.1 2.1 1.7 1.4 1.5 2.1 2.0 2.4 2.7 3.1 3.0 3.1 2.9
6.5 6.5 6.5 6.5 6.5 6.5 6.5 6.5 6.5 5.0 4.7 4.2 2.5 1.7 2.2 3.3 2.8 2.4 2.3 1.8 1.5 1.7 2.0 1.9 1.8 1.3 0.9 0.4 0.4 0.4 0.4 0.4 0.4 1.1 1.7 1.9 2.0 2.2 1.7 1.4 1.8 2.3 2.2 2.5 3.1 3.1 3.3 3.6 3.7
6.5 6.5 6.5 6.5 6.5 6.5 6.5 6.5 6.5 6.4 5.9 3.7 3.8 1.9 2.7 3.0 2.7 3.0 2.4 1.8 2.0 1.5 1.9 1.5 1.5 1.1 0.7 0.2 0.1 0.1 -0.0 0.0 0.2 1.1 1.6 2.1 2.2 2.2 2.4 1.4 1.1 1.7 2.0 2.3 2.6 3.1 3.2 3.6 4.4
6.5 6.5 6.5 6.5 6.5 6.5 6.5 6.5 6.5 6.5 6.0 4.6 3.9 3.5 2.6 3.4 3.3 3.6 3.2 2.5 1.3 1.4 1.3 1.5 1.1 0.9 0.6 0.5 0.1 -0.1 -0.1 0.2 0.3 0.6 0.8 1.3 2.3 2.6 2.4 2.0 1.6 1.5 1.8 2.0 2.3 2.8 3.4 3.7 3.8
6.5 6.5 6.5 6.5 6.5 6.5 6.5 6.5 6.5 6.5 6.5 6.5 5.1 3.5 2.4 3.3 4.1 3.9 3.6 2.4 2.3 1.3 1.2 1.4 1.3 0.8 0.7 0.2 0.1 0.4 -0.2 0.1 -0.0 0.1 0.4 0.8 2.1 2.4 2.5 2.7 2.4 2.0 2.1 2.0 2.2 3.0 2.8 3.7 4.6
6.5 6.5 6.5 6.5 6.5 6.5 6.5 6.5 6.5 6.5 6.5 6.5 6.0 5.2 2.3 2.6 3.7 4.3 3.4 2.9 2.8 1.7 1.5 0.9 1.2 1.1 0.4 -0.1 -0.4 -0.8 -0.7 -0.8 -0.6 -0.3 0.6 1.1 1.8 2.9 2.9 2.8 2.9 2.5 2.4 2.4 2.4 2.4 2.4 3.1 3.6
6.5 6.5 6.5 6.5 6.5 6.5 6.5 6.5 6.5 6.5 6.5 6.5 6.0 4.4 4.2 2.8 3.7 4.6 3.9 2.9 2.4 1.9 1.5 0.8 1.3 1.2 0.6 0.1 -0.2 -0.5 -0.6 -0.7 -0.5 -0.0 0.2 0.7 1.4 2.1 3.4 4.0 3.1 3.0 2.8 2.5 2.6 2.9 3.2 3.2 3.1
6.5 6.5 6.5 6.5 6.5 6.5 6.5 6.5 6.5 6.5 6.5 6.5 6.3 4.6 3.5 3.3 3.4 3.5 2.9 3.1 2.6 2.1 2.0 1.9 1.7 1.3 0.8 0.5 0.2 -0.1 -0.4 -0.3 0.0 0.1 0.2 1.1 1.4 2.2 2.7 2.7 2.4 2.4 2.7 3.0 3.1 3.2 4.3 6.0 5.5
6.5 6.5 6.5 6.5 6.5 6.5 6.5 6.5 6.5 6.5 5.8 4.9 4.8 4.8 3.7 3.8 4.3 4.2 3.7 3.0 2.8 2.6 2.5 2.7 2.1 1.6 1.2 1.0 0.7 0.3 0.1 -0.2 0.1 0.4 0.4 1.0 1.7 2.7 3.0 2.6 2.8 2.8 2.9 3.0 3.1 3.3 4.2 6.2 6.7
6.5 6.5 6.5 6.5 6.5 6.5 6.5 6.5 6.5 6.5 6.5 5.7 5.1 4.6 3.7 4.0 4.2 4.0 3.5 3.2 3.2 2.9 2.6 2.5 2.3 2.0 1.6 1.6 1.0 0.7 0.7 0.7 0.8 0.7 0.9 1.2 2.3 4.0 2.2 2.6 2.3 2.5 2.5 2.6 2.8 3.1 3.8 5.7 6.2
6.5 6.5 6.5 6.5 6.5 6.5 6.5 6.5 6.5 6.5 6.5 6.5 6.3 5.1 4.3 2.6 2.7 3.0 3.4 3.4 3.3 2.8 2.6 2.5 2.8 2.4 1.9 1.9 1.7 1.4 1.2 1.2 1.0 0.8 1.2 1.6 2.2 1.5 1.5 2.0 2.1 2.2 2.4 3.0 3.2 2.9 5.0 6.5 6.5
6.5 6.5 6.5 6.5 6.5 6.5 6.5 6.5 6.5 6.5 6.5 6.5 6.4 5.3 4.8 3.8 3.0 3.1 3.5 3.2 3.1 2.9 3.0 2.9 2.9 2.6 2.3 2.2 1.9 1.7 1.5 1.3 1.1 0.9 1.0 1.6 2.6 2.9 2.0 2.1 2.3 3.3 3.1 3.5 3.9 4.7 6.2 6.2 6.3
6.5 6.5 6.5 6.5 6.5 6.5 6.5 6.5 6.5 6.5 6.4 6.0 5.7 5.1 4.7 4.2 4.2 3.7 3.6 3.4 3.4 3.5 3.5 3.4 3.0 2.7 2.5 2.3 2.2 2.1 1.8 1.6 1.2 1.1 1.2 2.2 3.8 4.2 4.0 4.0 3.9 3.6 2.6 3.2 3.1 4.6 5.6 5.4 5.1
Wind_Speed
10 14 2 4 4 5 1 2 2 4 4 2 5 8 7 3 2 4 4 3 14 10 12 11 13 13 14 14 14 12 11 11 11 13 12 12 11 10 9 8 10 11 11 11 13 12 11 11 10
8 3 4 2 5 4 4 4 2 1 3 0 8 3 4 3 1 3 2 1 12 11 9 11 15 14 14 14 13 12 13 11 11 11 12 11 11 8 8 8 9 10 10 10 10 10 9 9 8
5 1 3 4 3 3 3 2 1 2 4 3 3 5 3 2 3 1 3 2 9 9 11 12 15 15 15 13 12 12 13 12 11 11 11 11 9 9 7 6 7 8 10 9 9 8 8 7 6
2 4 4 4 2 3 5 3 3 2 5 4 3 6 3 2 1 4 7 5 9 9 14 15 15 13 14 13 13 12 12 12 11 10 9 9 8 7 6 6 7 8 8 8 7 7 6 5 4
4 3 4 3 3 2 2 3 3 3 1 2 2 4 1 2 3 5 5 5 5 6 10 15 14 15 13 12 12 12 12 11 10 9 10 10 9 8 7 6 7 7 6 6 5 5 4 4 3
4 3 5 1 1 2 3 3 2 4 4 3 4 4 2 2 4 5 4 6 6 6 11 10 16 14 13 12 11 11 10 11 10 9 9 9 9 8 7 7 6 5 5 4 4 4 4 3 2
5 4 3 2 2 1 2 4 3 2 3 3 1 3 1 1 3 3 5 7 6 7 8 11 9 11 10 10 10 9 10 11 10 9 8 7 7 7 8 8 6 5 5 5 4 4 4 3 3
5 4 2 1 1 1 5 4 0 2 3 4 2 4 4 4 7 5 6 6 6 5 6 5 9 9 10 7 6 7 9 10 9 9 9 9 8 7 6 6 4 5 5 5 4 5 6 5 5
3 4 1 1 1 2 4 3 4 1 1 3 4 3 2 8 7 5 4 4 4 5 3 3 5 9 8 9 8 6 11 13 10 8 6 7 7 7 7 5 4 4 4 1 2 3 5 6 6
4 3 4 1 2 3 2 2 4 1 3 2 4 5 5 8 6 7 5 5 5 4 3 4 2 4 6 6 5 6 6 7 7 3 4 4 2 4 6 3 4 3 7 6 4 2 5 5 5
2 4 3 2 3 1 2 3 3 2 3 6 7 9 7 5 6 7 4 5 5 4 4 3 3 5 5 5 5 8 11 13 11 12 7 5 3 5 2 4 5 4 8 6 3 3 3 4 4
1 1 3 3 2 1 3 3 6 4 7 3 9 13 7 8 8 7 7 5 5 5 5 5 5 6 9 11 9 8 9 11 10 13 13 12 8 8 8 6 7 8 8 5 6 6 6 5 5
0 2 4 3 4 4 1 5 5 7 9 3 7 10 11 9 8 5 6 6 6 5 4 5 6 6 8 8 9 9 8 10 11 13 15 13 9 5 7 7 9 10 8 7 5 5 5 5 5
2 3 7 6 5 3 4 3 2 6 3 7 10 11 8 9 9 6 6 6 6 6 5 4 6 7 10 6 8 7 10 10 13 13 13 14 12 9 7 6 6 7 7 6 5 3 4 3 5
2 5 6 3 4 4 4 6 8 7 3 8 9 8 8 9 9 10 9 7 8 5 6 6 6 7 7 7 8 9 10 12 10 11 14 13 13 11 8 5 5 7 8 7 6 5 5 3 5
4 3 4 3 5 1 2 8 6 3 7 8 8 8 7 7 11 8 9 8 7 7 7 5 5 6 7 6 8 9 11 12 11 13 14 13 12 11 9 5 4 8 7 6 3 3 3 3 3
5 2 3 8 4 2 4 7 6 4 8 8 8 8 8 8 6 6 9 9 9 8 7 6 5 6 6 7 9 10 11 11 10 13 13 12 12 12 10 7 7 9 7 5 3 2 1 2 3
4 4 4 5 3 4 6 12 10 8 6 10 10 10 9 11 11 10 10 9 9 8 7 6 4 5 6 5 5 5 6 7 11 9 10 11 11 11 11 9 9 10 3 4 3 1 1 2 3
3 4 6 3 7 4 7 14 13 10 6 10 9 9 9 13 8 11 11 9 8 7 8 7 7 4 4 2 3 3 3 2 3 8 10 10 9 9 9 7 7 7 4 3 3 2 2 2 2
3 5 5 7 3 2 9 14 16 9 11 10 12 11 12 6 9 11 11 10 10 8 7 6 6 5 4 3 2 2 2 2 3 4 9 10 9 8 6 6 4 5 3 5 5 4 3 2 2
3 4 3 5 6 5 7 7 5 4 3 5 8 9 12 16 15 14 13 12 10 9 8 7 6 6 4 5 3 3 4 3 3 3 3 6 7 7 8 9 7 5 4 3 4 4 6 3 3
4 2 2 5 5 2 5 6 8 7 9 5 10 9 11 12 12 15 14 12 13 9 8 7 6 6 5 5 4 4 3 3 1 1 2 4 9 6 6 8 7 6 4 4 4 4 3 3 3
5 4 4 1 0 4 5 2 7 6 7 7 11 2 8 13 16 17 16 16 11 11 10 8 7 6 5 6 6 5 4 3 2 2 4 4 5 8 5 4 5 4 3 2 3 4 4 2 2
3 4 5 4 2 2 3 3 5 3 4 7 5 8 1 8 11 11 11 11 11 8 9 8 8 5 5 6 6 6 6 5 4 2 2 1 1 3 4 5 6 5 3 3 3 2 1 1 2
4 5 4 5 3 4 0 1 9 5 4 5 8 9 8 5 9 13 15 13 12 11 9 8 8 6 5 6 5 5 5 5 5 3 1 1 1 1 3 3 4 3 5 6 5 4 5 4 4
2 5 4 5 2 5 4 6 4 2 5 5 6 5 7 4 6 11 13 13 13 11 9 8 7 7 6 5 5 4 4 3 2 2 1 1 1 2 7 6 6 5 6 7 7 3 3 3 4
2 2 3 1 0 2 3 7 4 3 6 7 7 7 7 3 4 6 8 10 10 9 7 8 8 6 6 5 4 4 3 3 3 3 2 2 2 3 6 7 4 6 7 6 5 3 5 4 4
3 3 2 2 1 4 5 6 5 3 3 5 6 7 5 5 7 7 8 9 7 7 6 7 7 7 6 5 4 3 3 3 2 3 3 3 3 5 5 5 5 5 5 5 5 4 5 5 5
2 2 2 3 5 4 2 5 5 4 3 1 2 4 4 5 5 7 7 7 7 7 7 7 7 7 5 5 3 4 3 3 3 3 3 3 1 4 5 5 5 6 5 5 5 5 6 6 6
3 8 6 4 4 3 3 7 2 4 4 4 5 4 4 6 4 7 7 8 8 7 7 7 6 6 5 5 4 4 3 3 3 3 4 4 4 3 5 6 7 6 6 5 5 6 6 6 8
Wind_Direction
339 331 82 40 58 63 24 25 346 19 17 342 304 94 126 107 119 153 274 136 141 152 150 143 142 132 122 121 124 130 130 128 126 130 134 126 118 113 111 104 101 99 96 88 90 95 92 87 81
340 346 44 75 82 65 292 315 60 9 199 10 85 114 62 92 50 104 48 93 142 143 139 138 124 125 122 119 121 124 123 124 125 122 126 124 121 116 111 114 105 108 105 100 99 100 98 91 77
328 44 73 85 99 136 174 263 266 269 318 55 93 56 60 42 354 356 339 160 142 137 139 126 124 123 123 122 121 122 117 119 122 123 120 118 119 108 110 111 114 109 121 114 110 108 101 89 73
33 12 32 73 60 21 160 217 257 346 347 40 129 76 72 72 355 311 273 131 123 135 139 120 115 117 117 119 122 123 121 120 118 116 126 120 115 115 102 122 131 134 128 125 124 124 118 104 77
38 59 49 45 344 47 351 267 309 42 5 35 175 136 72 28 28 6 54 58 112 115 110 116 119 125 125 124 123 128 129 127 125 122 118 123 124 111 107 111 130 143 148 136 135 137 143 139 119
42 93 56 38 328 200 281 312 31 24 358 349 62 91 223 12 52 7 21 72 69 84 91 104 124 120 120 123 123 131 138 138 139 137 138 136 131 126 116 113 131 148 156 160 164 170 171 175 178
106 81 177 236 247 327 292 310 74 103 355 340 62 105 273 149 128 85 78 65 58 67 84 102 94 105 109 121 130 138 142 142 139 142 139 136 139 137 144 147 148 155 167 184 200 212 209 217 231
108 95 84 300 325 278 336 4 326 103 250 307 117 175 218 188 136 100 71 73 83 60 72 107 105 95 100 92 110 119 135 122 112 106 105 108 104 99 94 118 132 165 180 182 200 234 240 234 243
78 62 146 238 113 226 344 359 327 168 344 40 12 151 154 124 124 105 93 77 80 91 78 31 102 102 96 91 77 109 109 107 98 86 105 116 123 130 106 87 58 66 89 287 168 254 261 256 253
81 102 211 250 163 195 286 7 323 333 1 58 37 28 102 125 138 132 137 127 115 91 96 151 92 94 95 85 56 90 124 71 65 115 87 124 129 129 137 25 51 44 31 355 322 317 294 276 263
157 168 214 216 178 201 278 300 304 218 267 206 193 182 167 153 154 145 154 160 147 134 97 44 94 90 83 76 85 92 89 84 52 66 89 105 61 64 50 5 346 2 69 22 7 12 349 311 279
3 177 262 180 216 203 292 317 316 225 225 228 215 171 162 168 175 169 160 156 138 119 106 87 69 76 78 92 85 88 90 85 70 72 78 83 75 73 64 62 51 54 60 55 39 33 13 11 359
100 313 317 319 260 252 249 261 243 266 256 268 150 163 176 175 177 181 151 140 139 115 105 82 88 85 80 73 77 76 68 70 75 68 70 74 67 57 59 55 47 48 45 49 42 24 16 16 355
279 262 276 273 244 234 211 256 26 273 280 202 166 188 185 179 174 136 152 155 141 129 116 113 101 108 100 81 67 71 76 74 68 61 59 60 61 52 43 39 47 49 47 29 29 23 17 10 360
296 317 323 245 218 217 162 287 232 239 158 163 188 189 190 187 164 167 169 159 150 145 138 130 111 105 93 91 81 69 67 75 70 64 59 59 55 53 48 39 31 15 14 17 28 42 39 37 12
333 40 353 274 143 237 104 272 279 219 158 189 192 198 193 186 178 168 160 149 145 135 137 120 105 102 100 97 89 81 76 78 70 63 64 59 57 53 49 40 24 9 20 14 357 9 6 13 8
5 276 282 319 204 121 180 260 257 175 178 206 213 209 191 184 177 171 164 153 152 150 137 120 112 110 104 103 98 91 90 82 78 75 68 60 52 44 49 38 23 22 27 25 8 359 17 340 336
302 322 293 254 290 230 238 252 268 260 217 226 212 211 194 184 189 174 162 150 144 144 135 126 113 100 91 86 77 70 73 75 75 76 67 60 51 50 49 38 29 25 35 19 9 1 310 254 272
265 252 256 271 269 254 248 271 270 265 254 250 234 218 206 193 183 161 156 144 135 136 136 136 129 119 116 94 97 61 63 55 47 57 56 51 53 47 49 43 34 23 35 3 6 346 1 310 340
270 304 288 288 352 272 282 274 267 245 246 218 221 211 205 175 161 157 153 152 154 151 144 136 129 127 118 113 122 124 133 75 79 52 42 36 45 48 54 50 37 30 16 14 16 22 342 296 347
253 224 258 248 325 278 322 285 320 292 266 277 240 211 193 185 170 164 165 166 151 150 155 146 143 128 114 117 108 84 76 52 32 13 23 18 43 52 57 51 38 27 28 16 4 15 23 341 322
287 219 250 296 30 244 54 290 309 327 315 320 299 196 180 175 176 170 165 165 164 158 142 136 135 129 120 118 108 122 130 126 181 83 39 26 42 41 66 66 54 49 37 27 5 14 20 1 328
249 338 306 326 27 35 325 56 271 335 348 345 350 246 182 175 174 175 173 167 159 149 148 139 132 123 123 115 116 117 112 115 107 88 61 32 26 33 45 53 43 29 23 353 4 7 10 8 318
322 328 12 42 58 14 256 140 282 307 296 313 348 13 263 181 172 167 153 146 142 145 144 137 133 129 123 113 114 118 123 124 107 89 75 33 357 356 3 32 26 7 358 336 304 274 244 360 321
76 58 323 345 3 231 326 105 252 305 326 323 329 344 349 179 154 155 156 158 154 152 145 139 134 133 129 117 113 117 122 123 125 124 114 27 333 304 313 39 2 349 346 343 330 289 262 311 287
169 147 154 242 264 278 320 247 257 331 333 349 350 359 9 152 162 170 166 155 153 147 143 134 133 128 130 123 118 119 129 147 146 134 149 299 279 317 31 14 8 8 2 342 334 318 307 326 292
140 178 169 115 321 20 258 293 306 11 352 353 0 15 9 46 153 141 135 139 138 138 139 139 135 129 131 129 121 112 122 133 134 120 78 345 358 33 22 13 3 349 343 339 333 319 308 295 279
177 160 65 8 251 267 289 273 238 257 299 343 6 10 22 69 104 115 122 127 128 132 133 127 132 135 136 127 121 117 120 117 124 93 45 25 57 42 14 352 346 335 323 316 321 313 297 296 281
108 233 191 140 156 189 289 261 213 215 232 284 57 48 88 106 119 116 119 116 121 122 131 131 129 132 131 127 118 105 85 70 82 73 27 349 43 45 358 336 332 329 321 310 308 300 297 294 295
200 199 173 153 218 207 165 276 298 196 220 187 177 147 131 123 121 131 134 131 135 138 139 140 138 135 143 142 127 112 95 78 78 50 15 4 22 14 342 335 330 313 311 311 312 306 299 302 295